Flag for Norway Weather past 2 weeks in Nesodden, Norway

43 °F

Scattered clouds.

Feels Like: 32 °F
Forecast: 34 / 40 °F
Wind: 35 mph from Southwest

Location: Oslo / Fornebu

Current Time: Nov 28, 2015 at 12:43:11 PM

Latest Report: Nov 28, 2015 at 11:50 AM

Visibility: N/A

Pressure: 29.09 "Hg

Humidity: 61%

Dew point: 30 °F

Location of NesoddenLocation

Historic Weather in Nesodden — Graph


Nesodden temperature yesterday

Maximum temperature yesterday: 52 °F (at 6:50 AM)
Minimum temperature yesterday: 41 °F (at 8:50 PM)
Average temperature yesterday: 47 °F

Past Weeks' High & Low Weather Summary

High52 °F (Nov 15, 11:20 PM)100% (Nov 16, 7:50 AM)30.01 "Hg (Nov 16, 7:50 AM)
Low32 °F (Nov 21, 2:20 AM)42% (Nov 27, 9:50 PM)28.74 "Hg (Nov 17, 7:50 AM)
Average45 °F75%29.38 "Hg
* Reported Nov 13 11:20 AM — Nov 28 11:20 AM, Nesodden, Weather by CustomWeather, © 2015

Note: Actual official high and low records may vary slightly from our data, if they occured in-between our weather recording intervals... More about our weather records


Nesodden weather history for previous 24 hours

Time TempWeatherWind HumidityBarometerVisibility
11:20 AM
Sat, Nov 28
41 °FScattered clouds.37 mph66%29.09 "HgN/A
10:50 AM43 °FPartly sunny.36 mph66%29.09 "HgN/A
10:20 AM41 °FScattered clouds.33 mph66%29.09 "HgN/A
9:50 AM41 °FPartly sunny.33 mph70%29.09 "HgN/A
9:20 AM41 °FPassing clouds.28 mph76%29.09 "HgN/A
8:50 AM41 °FBroken clouds.35 mph70%29.09 "HgN/A
8:20 AM41 °FPassing clouds.37 mph70%29.09 "HgN/A
7:50 AM41 °FPassing clouds.31 mph76%29.09 "HgN/A
7:20 AM41 °FPassing clouds.29 mph70%29.09 "HgN/A
6:50 AM39 °FPartly cloudy.38 mph81%29.09 "HgN/A
6:20 AM43 °FPartly cloudy.35 mph66%29.09 "HgN/A
5:20 AM41 °FPassing clouds.36 mph61%29.09 "HgN/A
4:50 AM41 °FPartly cloudy.32 mph76%29.12 "HgN/A
4:20 AM43 °FPassing clouds.33 mph57%29.12 "HgN/A
3:50 AM43 °FPassing clouds.32 mph61%29.12 "HgN/A
3:20 AM41 °FPartly cloudy.33 mph66%29.12 "HgN/A
2:50 AM41 °FPassing clouds.33 mph70%29.12 "HgN/A
2:20 AM41 °FPassing clouds.32 mph66%29.12 "HgN/A
12:50 AM41 °FPassing clouds.32 mph70%29.12 "HgN/A
11:50 PM
Fri, Nov 27
41 °FPassing clouds.32 mph76%29.15 "HgN/A
11:20 PM41 °FPartly cloudy.30 mph66%29.15 "HgN/A
10:50 PM41 °FPassing clouds.37 mph70%29.15 "HgN/A
10:20 PM45 °FPartly cloudy.31 mph53%29.15 "HgN/A
9:50 PM45 °FPartly cloudy.35 mph42%29.15 "HgN/A
9:20 PM43 °FPartly cloudy.30 mph61%29.15 "HgN/A
8:50 PM41 °FLight rain. Passing clouds.33 mph76%29.18 "Hg4 mi
8:20 PM45 °FPassing clouds.28 mph57%29.15 "HgN/A
7:50 PM45 °FPassing clouds.30 mph53%29.15 "HgN/A
7:20 PM43 °FPassing clouds.29 mph71%29.15 "HgN/A
6:50 PM45 °FPassing clouds.28 mph61%29.15 "HgN/A
6:20 PM45 °FPassing clouds.33 mph61%29.12 "HgN/A
5:50 PM45 °FPassing clouds.36 mph61%29.12 "HgN/A
5:20 PM45 °FPassing clouds.37 mph61%29.12 "HgN/A
4:50 PM45 °FPartly cloudy.36 mph76%29.12 "HgN/A
4:20 PM45 °FPassing clouds.35 mph81%29.09 "HgN/A
3:50 PM45 °FPassing clouds.37 mph87%29.09 "HgN/A
3:20 PM45 °FSprinkles. Partly sunny.35 mph93%29.09 "HgN/A
2:50 PM45 °FSprinkles. Broken clouds.37 mph93%29.09 "HgN/A
2:20 PM46 °FSprinkles. Overcast.39 mph93%29.06 "Hg3 mi
1:50 PM48 °FSprinkles. Partly sunny.38 mph87%29.06 "HgN/A
1:20 PM48 °FLight rain. Overcast.37 mph87%29.06 "HgN/A
12:50 PM48 °FLight rain. Partly sunny.35 mph94%29.06 "Hg4 mi
12:20 PM48 °FLight rain. Fog.37 mph94%29.06 "Hg3 mi
Weather by CustomWeather, © 2015

See weather overviewHow to use our weather pages